User: anonymous   Login
Location: Bittelbronn
(48.4454°N, 8.5870°E)
Time: 16:06:26
(UTC+00:00)
Language:

Cosmos 1709 Rocket - Orbit

View from above orbital plane
View from above orbital plane
View from above satellite
View from above satellite

Ground track
Ground track

The orbit data is extracted from the following two-line orbital elements,

1 16369U 85116B   24206.58815545  .00000239  00000-0  22527-3 0  9996
2 16369  82.9347 218.6409 0037758  98.0917  51.2222 13.77043215938696
Epoch (UTC): 24 July 2024 14:06:56
Eccentricity: 0.0037758
inclination: 82.9347°
perigee height: 946 km
apogee height: 1002 km
right ascension of ascending node: 218.6409°
argument of perigee: 98.0917°
revolutions per day: 13.77043215
mean anomaly at epoch: 51.2222°
orbit number at epoch: 93869

The dashed part of the orbit path shows where the satellite is in the earth's shadow,  

DLR